sat.trackr.live / text

‹ back to catalog

KUIPER-00432

NORAD 68937 · 2026-098U

PAYLOAD ACTIVE UNKNOWN

§ Identity

Operator
Country
US
Launch date
2026-04-30
Launch site
FRGUI
Launch vehicle
Mass (kg)
RCS (m²)

External: N2YO · Heavens-Above · Gunter

§ Orbital elements

Epoch: 2026-09-19T06:37:22.144800Z

Period
97.30 min
Inclination
51.8988°
Eccentricity
0.0000776
Mean motion
14.79932394 rev/d
Perigee alt
629.0 km
Apogee alt
630.1 km
Semi-major
7,007.7 km
B*
2.0019e-5
RAAN
359.4841°
Arg perigee
116.4095°
Mean anomaly
243.6947°
Rev number
2,145

§ Raw data

KUIPER-004321 68937U 26098U   26262.27595075 -.00000069  00000+0  20019-4 0  99972 68937  51.8988 359.4841 0000776 116.4095 243.6947 14.79932394 21452

JSON: /api/v1/satellites/68937 · /tle

For live sub-satellite position, see the globe view (requires WebGL).

§ Visibility from observer

Set your observer location to see the next 7 days of passes ≥ 10°. The values pass through the URL so the page stays shareable.

No JS? Fill the form by hand. The geolocation button needs JavaScript.